Regional Weather Roundup
Issued by NWS

Home | Current Version | Previous Version | Graphics & Text | Print | Product List | Glossary Off
Versions: 1 2 3 4 5 6 7 8 9 10 11 12 13 14 15 16 17 18 19 20 21 22 23 24 25 26 27 28 29 30 31 32 33 34 35 36 37 38 39 40 41 42 43 44 45 46 47 48 49 50

000
ASUS43 KDTX 201010
RWRMI
MICHIGAN HOURLY REGIONAL WEATHER ROUNDUP
NATIONAL WEATHER SERVICE DETROIT/PONTIAC MI
600 AM EDT SUN APR 20 2014

NOTE: "FAIR" INDICATES FEW OR NO CLOUDS BELOW 12,000 FEET WITH NO
SIGNIFICANT WEATHER AND/OR OBSTRUCTION TO VISIBILITY.

MIZ047>049-052>055-059>063-066>070-074>076-081>083-201100-
SOUTHEAST LOWER MICHIGAN

CITY           SKY/WX    TMP DP  RH WIND       PRES   REMARKS
ADRIAN         PTCLDY    34  29  82 NE6       30.31F
ALMA           CLEAR     35  30  82 CALM      30.30F
ANN ARBOR      PTCLDY    33  28  81 CALM      30.31F
BAD AXE        PTCLDY    31  28  89 CALM      30.33S
DETROIT CITY   CLEAR     39  31  72 N3        30.33S
DETROIT        MOCLDY    38  29  70 CALM      30.32F
FLINT          PTCLDY    35  30  82 SE3       30.31F
GROSSE ILE     CLEAR     39  34  81 E5        30.31F
HILLSDALE      CLEAR     39  31  73 SE7       30.28F
HOWELL         PTCLDY    36  29  76 SE5       30.30S

CITY           SKY/WX    TMP DP  RH WIND       PRES   REMARKS
JACKSON        PTCLDY    37  28  70 SE7       30.30S
LAMBERTVILLE   CLEAR     36  32  87 CALM      30.31S
LANSING        PTCLDY    39  28  64 SE6       30.30F
LAPEER         NOT AVBL
MASON          PTCLDY    38  29  71 CALM      30.30R
MONROE         CLEAR     36  32  87 NE3       30.30F
MT. CLEMENS    PTCLDY    33  29  85 E2        30.31F
PONTIAC        MOCLDY    39  27  62 E5        30.30F
PORT HOPE        N/A     34  30  85 SE3       30.31F
PORT HURON     PTCLDY    30  30 100 CALM      30.33S FOG
TRI CITIES     CLEAR     38  31  76 CALM      30.32S
YPSILANTI      PTCLDY    36  28  73 N3        30.32F
$$
MIZ043>046-050>051-056>058-064>065-071>073-077>080-201100-
SOUTHWEST LOWER MICHIGAN

CITY           SKY/WX    TMP DP  RH WIND       PRES   REMARKS
BATTLE CREEK   CLEAR     40  28  62 SE6       30.29F
BENTON HARBOR  CLEAR     41  29  62 SE9       30.25F
BIG RAPIDS     MOCLDY    41  30  64 S7        30.25F
COLDWATER      CLEAR     38  30  73 SE5       30.29S
HOLLAND        PTCLDY    44  29  55 SE8       30.25F
GRAND RAPIDS   MOCLDY    42  29  59 SE9       30.26F
KALAMAZOO      CLEAR     39  29  67 SE5       30.28F
MARSHALL       CLEAR     33  28  81 S6        30.29S
MUSKEGON       MOCLDY    45  27  49 SE12      30.23F
$$
MIZ016>042-201100-
NORTHERN LOWER MICHIGAN

CITY           SKY/WX    TMP DP  RH WIND       PRES   REMARKS
ALPENA         CLOUDY    36  29  75 CALM      30.30S
BEAVER ISLAND  LGT RAIN  40  35  82 SE8       30.21F
BELLAIRE       CLOUDY    47  28  46 SE6       30.24S
CADILLAC       CLOUDY    44  28  54 S5        30.23S
CHARLEVOIX     LGT RAIN  45  34  67 CALM      30.26S
FRANKFORT      CLOUDY    50  29  44 SE8       30.19S
GAYLORD        CLOUDY    40  29  64 S10       30.25R
GRAYLING       MOCLDY    35  30  80 CALM      30.26F
HARBOR SPRINGS LGT RAIN  40  34  76 CALM      30.24F
HOUGHTON LAKE  PTCLDY    40  30  67 S9        30.26F
MANISTEE       CLOUDY    48  25  40 SE9       30.21S
OSCODA         PTCLDY    28  24  86 CALM      30.31F
PELLSTON       LGT RAIN  38  30  73 S5        30.25F
TRAVERSE CITY  CLOUDY    49  26  41 VRB3      30.20S
$$
MIZ007>008-015-201100-
EASTERN UPPER MICHIGAN

CITY           SKY/WX    TMP DP  RH WIND       PRES   REMARKS
KINROSS        CLOUDY    34  34 100 SE16      30.23F
MACKINAC ISLAN MIX PCPN  35  32  89 SE12      30.23F
NEWBERRY       CLOUDY    35  32  90 S8        30.18F
S. S. MARIE    FRZ RAIN  34  28  79 E7        30.24F
$$
MIZ004>006-011>014-085-201100-
CENTRAL UPPER MICHIGAN

CITY           SKY/WX    TMP DP  RH WIND       PRES   REMARKS
MANISTIQUE     LGT RAIN  36  34  93 SE8       30.18S
ESCANABA       CLOUDY    39  32  75 S9        30.15R
MENOMINEE      CLOUDY    43  37  81 S6        30.14S
SAWYER-GWINN   CLOUDY    38  36  93 S12       30.08F FOG
$$
MIZ001>003-009>011-084-201100-
WESTERN UPPER MICHIGAN

CITY           SKY/WX    TMP DP  RH WIND       PRES   REMARKS
IRON MOUNTAIN  CLOUDY    40  38  93 CALM      30.08F FOG
HOUGHTON       PTCLDY    43  34  70 SW3       30.01S
COPPER HARBOR    N/A     38  32  79 SW12      30.00F
IRONWOOD       MOCLDY    48  37  66 SW7       29.99R
$$

ABBREVIATIONS USED IN REMARKS
   TC - TEMPERATURE IN CELSIUS
  WCI - WIND CHILL INDEX
   HX - HEAT INDEX
  VSB - VISIBILITY




USA.gov is the U.S. government's official web portal to all federal, state and local government web resources and services.